Weather at Ekibastuz Airport

Public forecast

Using degrees Celsius for public forecast. Weather courtesy of forecast.io.

Closest aviation weather report (METAR) to Ekibastuz Airport

Closest report is Pavlodar Airport, 77.8 nm (144.2 km) ENE. Retrieved 2021/09/26 00:30 UTC (20 minutes ago):

UASP 260030Z 01005MPS 1000 R03/1400 BR SCT009 01/00 Q1020 R03/0///70 NOSIG RMK OBST OBSC QFE754/1006

Closest aviation forecast (TAF) to Ekibastuz Airport

Forecast is more than 12 hours old.

Closest forecast is Pavlodar Airport, 77.8 nm (144.2 km) ENE. Retrieved 2020/02/08 18:12 UTC (2 years ago):

TAF TAF UASP 081700Z 0818/0906 20005MPS 9999 OVC011 TEMPO 0818/0821 20010MPS 3100 -FZRA BKN006 TEMPO 0821/0903 1000 FZRA SNRA BKN003